Regional Weather Roundup
Issued by NWS

Home | Current Version | Previous Version | Graphics & Text | Print | Product List | Glossary On
Versions: 1 2 3 4 5 6 7 8 9 10 11 12 13 14 15 16 17 18 19 20 21 22 23 24 25 26 27 28 29 30 31 32 33 34 35 36 37 38 39 40 41 42 43 44 45 46 47 48 49 50
000
ASUS43 KLOT 301921
RWRIL

ILLINOIS REGIONAL WEATHER ROUNDUP
NATIONAL WEATHER SERVICE CHICAGO/ROMEOVILLE IL
200 PM CDT MON MAR 30 2015

NOTE: "FAIR" INDICATES FEW OR NO CLOUDS BELOW 12,000 FEET WITH NO
SIGNIFICANT WEATHER AND/OR OBSTRUCTIONS TO VISIBILITY.

* THESE STATIONS ARE NOT UNDER NWS QUALITY CONTROL. THEY ALSO MAY NOT
  REPORT WEATHER SUCH AS PRECIPITATION OR FOG.

ILZ001-002-007-009-015-016-024-302000-
NORTHWEST ILLINOIS

CITY           SKY/WX    TMP DP  RH WIND       PRES   REMARKS
MOLINE         MOSUNNY   67  25  20 W14G24    29.98F
STERLING*      MOSUNNY   66  32  28 NW15G22   29.97F
SAVANNA*       PTSUNNY   66  28  23 SW13G21   29.96F
$$

ILZ003-004-008-010-011-017-018-302000-
NORTH CENTRAL ILLINOIS

CITY           SKY/WX    TMP DP  RH WIND       PRES   REMARKS
ROCKFORD       CLOUDY    62  30  29 W14G24    29.98F
FREEPORT*      MOSUNNY   62  30  29 W13       29.97F
ROCHELLE*      MOSUNNY   61  32  33 W17       29.99F
DE KALB*       MOSUNNY   59  32  35 W15G22    30.00F
PERU*          SUNNY     65  30  26 W21G29    30.01F
$$

ILZ005-006-012>014-019>023-302000-
NORTHEAST ILLINOIS

CITY           SKY/WX    TMP DP  RH WIND       PRES   REMARKS
CHICAGO-OHARE  PTSUNNY   58  28  32 W16       29.98F
CHICAGO-MIDWAY PTSUNNY   61  29  29 SW15G23   30.00F
AURORA         SUNNY     63  33  32 W15       29.99F
LANSING*       MOSUNNY   61  25  25 W18G31    30.00F
JOLIET*        SUNNY     63  31  30 W10G18    30.01F
WAUKEGAN       MOSUNNY   57  28  33 W12G24    29.96F
DUPAGE AIRPORT SUNNY     61  30  31 W20G29    29.99F
KANKAKEE*      MOSUNNY   59  34  39 W15       30.04F
WHEELING       MOSUNNY   59  28  30 W13G24    29.99F
MORRIS*        SUNNY     62  30  30 W14G25    30.00F
ROMEOVILLE*    SUNNY     61  29  30 W16G25    30.01F
NORTHERLY ISL    N/A     57  25  29 W14         N/A
$$

LMZ740>746-302000-
SOUTHERN LAKE MICHIGAN

STATION/POSITION SKY/WX   TEMP    WIND        PRES    VSBY  WAVE
                          AIR SEA DIR/SP/G                  HT/PER
                          (F)     (DEG/KT/KT) (MB)    (MI)  (FT/S)
HARRISON CRIB              55     260/ 12/ 17   N/A
BURNHAM HARBOR             58     270/  6/ 18   N/A
CALUMET HARBOR             57     240/ 11/ 19 1015.4F
BURNS HARBOR               50     280/  4/  6 1017.6F
MICHIGAN CITY              51     210/  4/  4   N/A
$$

ILZ025>027-034>036-040-047-049-050-058-095>099-302000-
WEST-CENTRAL ILLINOIS

CITY           SKY/WX    TMP DP  RH WIND       PRES   REMARKS
QUINCY         SUNNY     66  28  24 SW7G22    30.06F
GALESBURG*     MOSUNNY   67  31  26 W16G23    30.03F
MACOMB*        SUNNY     66  30  25 W15G21    30.06F
JACKSONVILLE*  SUNNY     68  29  23 W14G21    30.09F
PITTSFIELD*    SUNNY     66  31  26 SW14G20   30.10F
$$

ILZ028>032-037-038-041>044-048-051>054-059>061-302000-
CENTRAL ILLINOIS

CITY           SKY/WX    TMP DP  RH WIND       PRES   REMARKS
PONTIAC        SUNNY     64  33  31 W25       30.03F
BLOOMINGTON    MOSUNNY   63  30  28 W17       30.06F
DECATUR        SUNNY     65  28  24 W15       30.09F
PEORIA         MOSUNNY   69  27  20 W12G20    30.05F
LACON*         SUNNY     64  26  23 W14G24    30.02F
LINCOLN*       SUNNY     67  29  24 W8        30.05F
SPRINGFIELD    SUNNY     68  30  24 W17       30.08F
TAYLORVILLE    SUNNY     63  32  31 W10G20    30.10F
$$

ILZ033-039-045-046-055>057-062-063-302000-
EAST-CENTRAL ILLINOIS

CITY           SKY/WX    TMP DP  RH WIND       PRES   REMARKS
CHAMPAIGN      SUNNY     64  31  28 W17G23    30.08F
DANVILLE*      SUNNY     59  35  40 W12G17    30.04F
RANTOUL*       MOSUNNY   63  33  33 W14       30.07F
MATTOON        SUNNY     62  31  31 W15       30.10F
PARIS*         SUNNY     61  37  40 W13G20    30.11F
$$

ILZ079-100>102-302000-
SOUTHWEST ILLINOIS

CITY           SKY/WX    TMP DP  RH WIND       PRES   REMARKS
ALTON          SUNNY     66  19  16 SW12      30.11F
BELLEVILLE     SUNNY     66  28  24 W7        30.12F
CAHOKIA*       SUNNY     66  28  24 SW6       30.12F
SPARTA*        SUNNY     63  29  28 W3        30.15F
$$

ILZ064>066-069>071-074>076-080>082-084>086-088>090-092>094-302000-
SOUTH-CENTRAL ILLINOIS

CITY           SKY/WX    TMP DP  RH WIND       PRES   REMARKS
CARBONDALE     SUNNY     64  28  25 NE8       30.18F
CAIRO*         SUNNY     63  34  34 SE9       30.18F
EFFINGHAM*     SUNNY     64  26  23 SW10G16   30.13F
MARION         SUNNY     64  28  25 W12       30.19S
MT. VERNON     SUNNY     63  27  25 SW9       30.14F
CENTRALIA*     SUNNY     62  29  28 S5G10     30.14F
SALEM*         SUNNY     65  27  24 W8        30.14F
METROPOLIS*    SUNNY     65  31  27 SW8       30.17F
$$

ILZ067-068-072-073-078-083-087-091-302000-
SOUTHEAST ILLINOIS

CITY           SKY/WX    TMP DP  RH WIND       PRES   REMARKS
LAWRENCEVILLE  SUNNY     61  31  32 W6        30.13F
FLORA*         SUNNY     63  30  29 NW9       30.15F
FAIRFIELD*     SUNNY     63  29  27 W5        30.15S
HARRISBURG*    SUNNY     63  30  28 W6        30.18S
ROBINSON*      SUNNY     61  31  32 W8        30.13F
CARMI*         SUNNY     62  22  22 CALM      30.15F
$$

ABBREVIATIONS USED IN REMARKS
   TC - TEMPERATURE IN CELSIUS
  WCI - WIND CHILL INDEX
   HX - HEAT INDEX
  VSB - VISIBILITY
$$



USA.gov is the U.S. government's official web portal to all federal, state and local government web resources and services.